Location: Acts Church of Fort Worth
(32.6786°N, 97.2668°W)
Time: 20:26:31
(UTC+00:00)

Meteor 1-24 Rocket - Pass Details

Date: 18 January 2026
Orbit: 790 x 925 km, 81.3° (Epoch: 10 February)

Event Time Altitude Azimuth Distance (km) Brightness Sun altitude
Rises 01:55:59 0° 188° (S) 3,349 7.0 -26.6°
Reaches altitude 10° 01:58:19 10° 189° (S) 2,438 6.3 -27.1°
Maximum altitude 02:03:52 84° 277° (W) 866 3.6 -28.3°
Enters shadow 02:04:24 74° 348° (NNW) 897 3.7 -28.4°
